Terug naar catalogus

QIANFAN-132

ActiefCommunicatiePO
NORAD 69078·PAYLOAD·🇨🇳 China

Gelanceerd May 12, 2026 vanaf Taiyuan Satellite Launch Center

Loading…

Volgende Passages (komende 24 uur)

TLE

VersSource: Space-Track

Epoch: Sep 14, 2026, 21:46 UTC

1 69078U 26104F   26257.90758596  .00000120  00000-0  16775-3 0  9996
2 69078  88.9907 332.3658 0002415 101.9879 258.1543 13.51021404 17243

Volg QIANFAN-132 in realtime met AllMySat

Download on the App Store